| time (UTC) | temp F | wind direction | speed knots | gust knots | rain 1hr in | rain 24hr in | rain mn in | humidity % | barometer mb |
| 20260505163521 | 73 | 307 | 1.7 | 5.2 | 0.00 | 0.00 | 0.00 | ||
| 20260505160520 | 71 | 270 | 2.6 | 7.0 | 0.00 | 0.00 | 0.00 | ||
| 20260505150520 | 65 | 273 | 0.0 | 5.2 | 0.00 | 0.00 | 0.00 | ||
| 20260505140519 | 60 | 264 | 0.0 | 3.5 | 0.00 | 0.00 | 0.00 | ||
| 20260505123518 | 59 | 0 | 0.0 | 0.0 | 0.00 | 0.00 | 0.00 | ||
| 20260505120517 | 59 | 0 | 0.0 | 0.0 | 0.00 | 0.00 | 0.00 | ||
| 20260505113517 | 61 | 0 | 0.0 | 0.0 | 0.00 | 0.00 | 0.00 | ||
| 20260505110516 | 62 | 0 | 0.0 | 0.0 | 0.00 | 0.00 | 0.00 | ||
| 20260505100516 | 63 | 0 | 0.0 | 0.0 | 0.00 | 0.00 | 0.00 | ||
| 20260505093515 | 64 | 0 | 0.0 | 0.0 | 0.00 | 0.00 | 0.00 | ||
| 20260505090618 | 65 | 0 | 0.0 | 0.0 | 0.00 | 0.00 | 0.00 | ||
| 20260505090515 | 65 | 0 | 0.0 | 0.0 | 0.00 | 0.00 | 0.00 | ||
| 20260505083514 | 66 | 0 | 0.0 | 0.0 | 0.00 | 0.00 | 0.00 | ||
| 20260505080514 | 66 | 0 | 0.0 | 0.0 | 0.00 | 0.00 | 0.00 | ||
| 20260505073514 | 66 | 0 | 0.0 | 0.0 | 0.00 | 0.00 | 0.00 | ||
| 20260505070513 | 68 | 0 | 0.0 | 0.0 | 0.00 | 0.00 | 0.00 | ||
| 20260505063513 | 70 | 0 | 0.0 | 0.0 | 0.00 | 0.00 | 0.00 | ||
| 20260505060512 | 71 | 0 | 0.0 | 0.0 | 0.00 | 0.00 | 0.00 | ||
| 20260505053512 | 74 | 0 | 0.0 | 0.0 | 0.00 | 0.00 | 0.00 | ||
| 20260505050512 | 75 | 0 | 0.0 | 0.0 | 0.00 | 0.00 | 0.00 | ||
| 20260505040511 | 79 | 0 | 0.0 | 0.0 | 0.00 | 0.00 | 0.00 | ||
| 20260505033510 | 79 | 0 | 0.0 | 0.0 | 0.00 | 0.00 | 0.00 | ||
| 20260505030510 | 82 | 0 | 0.0 | 0.0 | 0.00 | 0.00 | 0.00 | ||
| 20260505023510 | 86 | 0 | 0.0 | 0.0 | 0.00 | 0.00 | 0.00 | ||
| 20260505020509 | 87 | 281 | 0.0 | 1.7 | 0.00 | 0.00 | 0.00 | ||
| 20260505013509 | 88 | 0 | 0.0 | 0.0 | 0.00 | 0.00 | 0.00 | ||
| 20260505010508 | 89 | 0 | 0.0 | 0.0 | 0.00 | 0.00 | 0.00 | ||
| 20260505003508 | 90 | 27 | 1.7 | 4.3 | 0.00 | 0.00 | 0.00 | ||
| 20260505000508 | 90 | 283 | 0.9 | 4.3 | 0.00 | 0.00 | 0.00 | ||
| 20260504233507 | 91 | 349 | 2.6 | 7.0 | 0.00 | 0.00 | 0.00 | ||
| 20260504230507 | 94 | 301 | 0.9 | 4.3 | 0.00 | 0.00 | 0.00 | ||
| 20260504223506 | 95 | 273 | 0.9 | 5.2 | 0.00 | 0.00 | 0.00 | ||
| 20260504220506 | 95 | 276 | 0.9 | 6.1 | 0.00 | 0.00 | 0.00 | ||
| 20260504213506 | 96 | 339 | 3.5 | 7.0 | 0.00 | 0.00 | 0.00 | ||
| 20260504210506 | 94 | 349 | 1.7 | 5.2 | 0.00 | 0.00 | 0.00 | ||
| 20260504203505 | 93 | 309 | 2.6 | 6.1 | 0.00 | 0.00 | 0.00 | ||
| 20260504200504 | 93 | 17 | 0.9 | 3.5 | 0.00 | 0.00 | 0.00 | ||
| 20260504193504 | 91 | 8 | 2.6 | 8.7 | 0.00 | 0.00 | 0.00 | ||
| 20260504190504 | 90 | 287 | 0.9 | 5.2 | 0.00 | 0.00 | 0.00 | ||
| 20260504183503 | 87 | 263 | 2.6 | 5.2 | 0.00 | 0.00 | 0.00 | ||
| 20260504180504 | 83 | 287 | 2.6 | 5.2 | 0.00 | 0.00 | 0.00 | ||
| 20260504173503 | 81 | 276 | 2.6 | 7.8 | 0.00 | 0.00 | 0.00 | ||
| 20260504170502 | 78 | 297 | 0.0 | 3.5 | 0.00 | 0.00 | 0.00 |